MAS1205 WMKA-WMKK

Flight info

Callsign MAS1205
Flight time 0h 50m
Altitude 25000
Route GUTEB1B GUTEB Y502 RINBA Y507 KAKAK KAKAK1J
Aircraft B738/M-SDE2E3FGHIRWXY/LB1

Departure

Time 2026-05-08 04:12
Airport Sultan Abdul Halim Airport (WMKA)

Arrival

Time 2026-05-08 05:03
Airport Kuala Lumpur International Airport (WMKK)
Time Latitude Longitude Altitude Speed Heading
2026-05-08 03:44 6.19096 100.39615 16 ft 0 kts 310°
2026-05-08 04:01 6.19085 100.39628 16 ft 4 kts 310°
2026-05-08 04:02 6.19067 100.39648 16 ft 4 kts 312°
2026-05-08 04:02 6.19057 100.39657 16 ft 4 kts 339°
2026-05-08 04:02 6.19033 100.39666 20 ft 4 kts 341°
2026-05-08 04:02 6.19014 100.39674 17 ft 4 kts 319°
2026-05-08 04:03 6.18998 100.39695 17 ft 4 kts 305°
2026-05-08 04:03 6.18962 100.39735 18 ft 4 kts 313°
2026-05-08 04:03 6.18944 100.39754 21 ft 4 kts 317°
2026-05-08 04:04 6.18926 100.39764 20 ft 4 kts 345°
2026-05-08 04:04 6.18901 100.39765 21 ft 4 kts 21°
2026-05-08 04:04 6.18878 100.39752 21 ft 4 kts 33°
2026-05-08 04:04 6.18869 100.39746 19 ft 1 kts 30°
2026-05-08 04:06 6.18870 100.39746 20 ft 1 kts 30°
2026-05-08 04:06 6.18877 100.39751 21 ft 2 kts 34°
2026-05-08 04:07 6.18894 100.39763 20 ft 4 kts 34°
2026-05-08 04:07 6.18916 100.39784 21 ft 5 kts 45°
2026-05-08 04:07 6.18943 100.39811 19 ft 6 kts 44°
2026-05-08 04:07 6.18976 100.39842 20 ft 7 kts 43°
2026-05-08 04:08 6.19015 100.39879 20 ft 8 kts 43°
2026-05-08 04:08 6.19064 100.39922 19 ft 10 kts 41°
2026-05-08 04:08 6.19124 100.39976 18 ft 13 kts 43°
2026-05-08 04:08 6.19192 100.40039 17 ft 14 kts 41°
2026-05-08 04:09 6.19265 100.40106 17 ft 15 kts 43°
2026-05-08 04:09 6.19344 100.40178 17 ft 16 kts 42°
2026-05-08 04:09 6.19430 100.40257 16 ft 17 kts 43°
2026-05-08 04:09 6.19515 100.40335 17 ft 16 kts 43°
2026-05-08 04:10 6.19598 100.40411 17 ft 16 kts 42°
2026-05-08 04:10 6.19684 100.40490 18 ft 17 kts 43°
2026-05-08 04:10 6.19769 100.40568 19 ft 16 kts 42°
2026-05-08 04:10 6.19866 100.40607 19 ft 11 kts
2026-05-08 04:11 6.19910 100.40633 18 ft 8 kts 86°
2026-05-08 04:11 6.19870 100.40652 19 ft 7 kts 197°
2026-05-08 04:11 6.19834 100.40627 19 ft 0 kts 223°
2026-05-08 04:12 6.19790 100.40586 19 ft 25 kts 222°
2026-05-08 04:12 6.19458 100.40282 17 ft 103 kts 222°
2026-05-08 04:12 6.18766 100.39646 20 ft 164 kts 223°
2026-05-08 04:12 6.17551 100.38498 818 ft 175 kts 224°
2026-05-08 04:13 6.16988 100.37947 1626 ft 167 kts 224°
2026-05-08 04:13 6.16059 100.37078 2075 ft 198 kts 221°
2026-05-08 04:13 6.14951 100.36084 2327 ft 228 kts 221°
2026-05-08 04:13 6.13725 100.34973 2706 ft 247 kts 222°
2026-05-08 04:14 6.12389 100.33769 3139 ft 265 kts 217°
2026-05-08 04:14 6.10705 100.33052 4044 ft 265 kts 185°
2026-05-08 04:14 6.08886 100.33309 4953 ft 269 kts 159°
2026-05-08 04:14 6.07214 100.34170 5813 ft 272 kts 149°
2026-05-08 04:15 6.05579 100.35159 6634 ft 276 kts 148°
2026-05-08 04:15 6.03934 100.36177 7446 ft 279 kts 147°
2026-05-08 04:15 6.02269 100.37206 8263 ft 282 kts 147°
2026-05-08 04:15 6.00583 100.38239 9095 ft 285 kts 147°
2026-05-08 04:16 5.98874 100.39280 9908 ft 289 kts 147°
2026-05-08 04:16 5.97126 100.40340 10450 ft 303 kts 147°
2026-05-08 04:16 5.95269 100.41463 10656 ft 326 kts 147°
2026-05-08 04:16 5.93273 100.42666 11213 ft 334 kts 148°
2026-05-08 04:17 5.91268 100.43871 11965 ft 337 kts 148°
2026-05-08 04:17 5.89251 100.45083 12739 ft 339 kts 147°
2026-05-08 04:17 5.87220 100.46302 13501 ft 342 kts 147°
2026-05-08 04:17 5.85164 100.47537 14179 ft 346 kts 147°
2026-05-08 04:18 5.83114 100.48769 14846 ft 350 kts 147°
2026-05-08 04:18 5.80989 100.50044 15549 ft 353 kts 147°
2026-05-08 04:18 5.78897 100.51300 16202 ft 357 kts 147°
2026-05-08 04:18 5.76746 100.52566 16850 ft 362 kts 148°
2026-05-08 04:19 5.74543 100.53820 17494 ft 365 kts 148°
2026-05-08 04:19 5.72313 100.55075 18146 ft 369 kts 148°
2026-05-08 04:19 5.70059 100.56343 18681 ft 373 kts 148°
2026-05-08 04:19 5.67785 100.57624 19218 ft 377 kts 148°
2026-05-08 04:20 5.65488 100.58921 19752 ft 380 kts 148°
2026-05-08 04:20 5.63176 100.60229 20285 ft 384 kts 148°
2026-05-08 04:20 5.60841 100.61551 20811 ft 387 kts 148°
2026-05-08 04:20 5.58480 100.62888 21326 ft 391 kts 148°
2026-05-08 04:21 5.56105 100.64234 21837 ft 394 kts 148°
2026-05-08 04:21 5.53706 100.65594 22350 ft 398 kts 149°
2026-05-08 04:21 5.51288 100.66963 22836 ft 401 kts 149°
2026-05-08 04:21 5.48847 100.68346 23316 ft 404 kts 149°
2026-05-08 04:22 5.46387 100.69740 23733 ft 408 kts 149°
2026-05-08 04:22 5.43911 100.71142 24169 ft 409 kts 149°
2026-05-08 04:22 5.41435 100.72544 24666 ft 409 kts 149°
2026-05-08 04:22 5.38939 100.73937 24872 ft 412 kts 152°
2026-05-08 04:23 5.37193 100.74712 24895 ft 416 kts 158°
2026-05-08 04:23 5.33422 100.75702 24916 ft 422 kts 168°
2026-05-08 04:23 5.30528 100.76161 24913 ft 421 kts 169°
2026-05-08 04:23 5.27631 100.76587 24916 ft 420 kts 170°
2026-05-08 04:24 5.24745 100.77007 24918 ft 419 kts 169°
2026-05-08 04:24 5.21859 100.77436 24920 ft 419 kts 169°
2026-05-08 04:24 5.18976 100.77875 24918 ft 419 kts 169°
2026-05-08 04:24 5.16093 100.78321 24914 ft 419 kts 169°
2026-05-08 04:25 5.13211 100.78773 24916 ft 420 kts 169°
2026-05-08 04:25 5.10325 100.79228 24914 ft 420 kts 169°
2026-05-08 04:25 5.07440 100.79684 24915 ft 420 kts 169°
2026-05-08 04:25 5.04550 100.80141 24912 ft 421 kts 169°
2026-05-08 04:26 5.01656 100.80599 24916 ft 421 kts 169°
2026-05-08 04:26 4.98760 100.81056 24908 ft 421 kts 169°
2026-05-08 04:26 4.95862 100.81514 24914 ft 421 kts 169°
2026-05-08 04:26 4.92968 100.81972 24915 ft 421 kts 169°
2026-05-08 04:27 4.90072 100.82429 24913 ft 421 kts 169°
2026-05-08 04:27 4.87174 100.82886 24906 ft 422 kts 169°
2026-05-08 04:27 4.84280 100.83343 24915 ft 422 kts 169°
2026-05-08 04:27 4.81378 100.83801 24907 ft 422 kts 169°
2026-05-08 04:28 4.78520 100.84252 24907 ft 422 kts 169°
2026-05-08 04:28 4.75621 100.84710 24904 ft 422 kts 169°
2026-05-08 04:28 4.72727 100.85167 24896 ft 421 kts 169°
2026-05-08 04:28 4.69830 100.85624 24901 ft 421 kts 169°
2026-05-08 04:29 4.66936 100.86081 24896 ft 421 kts 169°
2026-05-08 04:29 4.64044 100.86537 24893 ft 421 kts 169°
2026-05-08 04:29 4.61154 100.86993 24901 ft 421 kts 169°
2026-05-08 04:29 4.58260 100.87450 24898 ft 421 kts 169°
2026-05-08 04:30 4.55368 100.87906 24894 ft 421 kts 169°
2026-05-08 04:30 4.52474 100.88363 24891 ft 421 kts 169°
2026-05-08 04:30 4.49580 100.88819 24895 ft 421 kts 169°
2026-05-08 04:30 4.46700 100.89342 24891 ft 419 kts 163°
2026-05-08 04:31 4.43944 100.90255 24890 ft 416 kts 154°
2026-05-08 04:31 4.41336 100.91501 24903 ft 415 kts 152°
2026-05-08 04:31 4.38746 100.92788 24898 ft 416 kts 151°
2026-05-08 04:31 4.36156 100.94085 24901 ft 416 kts 151°
2026-05-08 04:32 4.33567 100.95374 24896 ft 416 kts 152°
2026-05-08 04:32 4.30973 100.96656 24899 ft 416 kts 152°
2026-05-08 04:32 4.28374 100.97933 24903 ft 416 kts 152°
2026-05-08 04:32 4.25773 100.99204 24900 ft 416 kts 152°
2026-05-08 04:33 4.23169 101.00474 24901 ft 416 kts 152°
2026-05-08 04:33 4.20567 101.01741 24902 ft 416 kts 152°
2026-05-08 04:33 4.17960 101.03010 24903 ft 416 kts 152°
2026-05-08 04:33 4.15354 101.04279 24907 ft 416 kts 152°
2026-05-08 04:34 4.12751 101.05546 24907 ft 416 kts 152°
2026-05-08 04:34 4.10146 101.06815 24908 ft 416 kts 152°
2026-05-08 04:34 4.07540 101.08083 24909 ft 417 kts 152°
2026-05-08 04:34 4.04934 101.09353 24908 ft 417 kts 152°
2026-05-08 04:35 4.02324 101.10623 24902 ft 417 kts 152°
2026-05-08 04:35 3.99717 101.11892 24904 ft 417 kts 152°
2026-05-08 04:35 3.97113 101.13160 24908 ft 417 kts 152°
2026-05-08 04:35 3.94514 101.14425 24903 ft 417 kts 152°
2026-05-08 04:36 3.91942 101.15678 24903 ft 417 kts 152°
2026-05-08 04:36 3.89327 101.16950 24900 ft 417 kts 152°
2026-05-08 04:36 3.86722 101.18219 24896 ft 415 kts 152°
2026-05-08 04:36 3.84120 101.19484 24826 ft 406 kts 152°
2026-05-08 04:37 3.81590 101.20715 24437 ft 402 kts 152°
2026-05-08 04:37 3.79093 101.21930 24020 ft 399 kts 152°
2026-05-08 04:37 3.76641 101.23131 23552 ft 396 kts 150°
2026-05-08 04:37 3.74247 101.24490 22937 ft 395 kts 146°
2026-05-08 04:38 3.71934 101.25956 22430 ft 392 kts 145°
2026-05-08 04:38 3.69658 101.27438 21932 ft 389 kts 145°
2026-05-08 04:38 3.67398 101.28900 21437 ft 385 kts 145°
2026-05-08 04:38 3.65237 101.30282 20924 ft 384 kts 145°
2026-05-08 04:39 3.62871 101.31779 20396 ft 382 kts 146°
2026-05-08 04:39 3.60624 101.33190 19933 ft 379 kts 146°
2026-05-08 04:39 3.58396 101.34585 19472 ft 376 kts 146°
2026-05-08 04:39 3.56184 101.35969 19007 ft 374 kts 146°
2026-05-08 04:40 3.53984 101.37346 18544 ft 372 kts 146°
2026-05-08 04:40 3.51777 101.38691 18060 ft 372 kts 151°
2026-05-08 04:40 3.49304 101.39446 17543 ft 375 kts 172°
2026-05-08 04:40 3.46707 101.39296 17069 ft 377 kts 192°
2026-05-08 04:41 3.44318 101.38253 16764 ft 374 kts 212°
2026-05-08 04:41 3.42422 101.36542 16599 ft 365 kts 231°
2026-05-08 04:41 3.41145 101.34382 16445 ft 356 kts 244°
2026-05-08 04:41 3.40128 101.32160 16284 ft 347 kts 245°
2026-05-08 04:42 3.39157 101.30012 16131 ft 338 kts 245°
2026-05-08 04:42 3.38179 101.27905 15987 ft 330 kts 242°
2026-05-08 04:42 3.36874 101.26059 15704 ft 324 kts 224°
2026-05-08 04:42 3.35287 101.24473 15424 ft 321 kts 223°
2026-05-08 04:43 3.33710 101.22892 15120 ft 321 kts 224°
2026-05-08 04:43 3.32138 101.21317 14800 ft 319 kts 220°
2026-05-08 04:43 3.30285 101.20141 14501 ft 314 kts 203°
2026-05-08 04:43 3.28304 101.19218 14166 ft 315 kts 202°
2026-05-08 04:44 3.26332 101.18291 13983 ft 307 kts 203°
2026-05-08 04:44 3.24441 101.17396 13758 ft 296 kts 200°
2026-05-08 04:44 3.22469 101.16933 13235 ft 291 kts 183°
2026-05-08 04:44 3.20467 101.16749 12761 ft 288 kts 179°
2026-05-08 04:45 3.18529 101.17063 12322 ft 280 kts 154°
2026-05-08 04:45 3.16958 101.18149 11884 ft 273 kts 130°
2026-05-08 04:45 3.15990 101.19749 11427 ft 269 kts 108°
2026-05-08 04:45 3.15698 101.21560 11201 ft 256 kts 89°
2026-05-08 04:46 3.15785 101.23267 11110 ft 236 kts 86°
2026-05-08 04:46 3.15905 101.24833 10999 ft 217 kts 83°
2026-05-08 04:46 3.16436 101.26162 10863 ft 201 kts 50°
2026-05-08 04:46 3.17418 101.27085 10713 ft 190 kts 43°
2026-05-08 04:47 3.18427 101.27936 10345 ft 190 kts 42°
2026-05-08 04:47 3.19440 101.28782 10000 ft 189 kts 42°
2026-05-08 04:47 3.20449 101.29623 9629 ft 189 kts 42°
2026-05-08 04:47 3.21456 101.30459 9256 ft 187 kts 42°
2026-05-08 04:48 3.22454 101.31287 8897 ft 186 kts 42°
2026-05-08 04:48 3.23447 101.32110 8540 ft 185 kts 41°
2026-05-08 04:48 3.24437 101.32930 8188 ft 185 kts 42°
2026-05-08 04:48 3.25424 101.33748 7849 ft 183 kts 41°
2026-05-08 04:49 3.26345 101.34612 7481 ft 181 kts 60°
2026-05-08 04:49 3.26622 101.35802 7107 ft 177 kts 101°
2026-05-08 04:49 3.26033 101.36857 6750 ft 178 kts 140°
2026-05-08 04:49 3.25006 101.37536 6431 ft 177 kts 146°
2026-05-08 04:50 3.23965 101.38197 6078 ft 177 kts 146°
2026-05-08 04:50 3.22930 101.38857 5761 ft 175 kts 146°
2026-05-08 04:50 3.21905 101.39515 5441 ft 175 kts 146°
2026-05-08 04:50 3.20896 101.40160 5240 ft 171 kts 146°
2026-05-08 04:51 3.19922 101.40845 4988 ft 171 kts 141°
2026-05-08 04:51 3.18970 101.41566 4767 ft 172 kts 141°
2026-05-08 04:51 3.18020 101.42286 4578 ft 172 kts 142°
2026-05-08 04:51 3.17067 101.43006 4546 ft 175 kts 141°
2026-05-08 04:52 3.16081 101.43745 4525 ft 177 kts 141°
2026-05-08 04:52 3.15106 101.44477 4507 ft 173 kts 142°
2026-05-08 04:52 3.14147 101.45188 4523 ft 172 kts 142°
2026-05-08 04:52 3.13185 101.45903 4538 ft 173 kts 142°
2026-05-08 04:53 3.12210 101.46627 4530 ft 175 kts 142°
2026-05-08 04:53 3.11261 101.47398 4526 ft 177 kts 139°
2026-05-08 04:53 3.10290 101.48163 4517 ft 177 kts 142°
2026-05-08 04:53 3.09310 101.48884 4509 ft 174 kts 142°
2026-05-08 04:54 3.08339 101.49572 4518 ft 169 kts 143°
2026-05-08 04:54 3.07376 101.50240 4507 ft 169 kts 143°
2026-05-08 04:54 3.06406 101.50898 4512 ft 168 kts 144°
2026-05-08 04:54 3.05430 101.51552 4539 ft 169 kts 144°
2026-05-08 04:55 3.04458 101.52207 4528 ft 169 kts 143°
2026-05-08 04:55 3.03483 101.52864 4522 ft 170 kts 144°
2026-05-08 04:55 3.02505 101.53523 4522 ft 169 kts 143°
2026-05-08 04:55 3.01528 101.54181 4525 ft 169 kts 144°
2026-05-08 04:56 3.00548 101.54842 4509 ft 170 kts 144°
2026-05-08 04:56 2.99579 101.55497 4505 ft 167 kts 144°
2026-05-08 04:56 2.98618 101.56146 4509 ft 167 kts 144°
2026-05-08 04:56 2.97639 101.56807 4532 ft 174 kts 144°
2026-05-08 04:57 2.96612 101.57502 4323 ft 180 kts 144°
2026-05-08 04:57 2.95578 101.58201 4100 ft 179 kts 144°
2026-05-08 04:57 2.94548 101.58895 3874 ft 178 kts 144°
2026-05-08 04:57 2.93521 101.59588 3634 ft 178 kts 144°
2026-05-08 04:58 2.92505 101.60273 3400 ft 175 kts 144°
2026-05-08 04:58 2.91505 101.60949 3180 ft 172 kts 144°
2026-05-08 04:58 2.90523 101.61609 2961 ft 168 kts 144°
2026-05-08 04:58 2.89577 101.62251 2752 ft 165 kts 144°
2026-05-08 04:59 2.88636 101.62888 2541 ft 158 kts 145°
2026-05-08 04:59 2.87728 101.63501 2364 ft 157 kts 145°
2026-05-08 04:59 2.86831 101.64106 2175 ft 152 kts 145°
2026-05-08 04:59 2.86255 101.64495 2020 ft 148 kts 146°
2026-05-08 05:00 2.85426 101.65055 1840 ft 139 kts 146°
2026-05-08 05:00 2.84425 101.65731 1632 ft 124 kts 146°
2026-05-08 05:00 2.83940 101.66058 1512 ft 125 kts 147°
2026-05-08 05:00 2.83203 101.66554 1366 ft 130 kts 146°
2026-05-08 05:01 2.82221 101.67219 1114 ft 127 kts 147°
2026-05-08 05:01 2.81490 101.67713 982 ft 129 kts 147°
2026-05-08 05:01 2.80980 101.68058 860 ft 133 kts 145°
2026-05-08 05:01 2.80222 101.68630 738 ft 140 kts 145°
2026-05-08 05:02 2.79412 101.69203 586 ft 145 kts 148°
2026-05-08 05:02 2.78548 101.69741 375 ft 151 kts 149°
2026-05-08 05:02 2.77657 101.70322 105 ft 147 kts 148°
2026-05-08 05:02 2.76890 101.70832 60 ft 119 kts 148°
2026-05-08 05:03 2.76310 101.71214 65 ft 84 kts 146°
2026-05-08 05:03 2.75942 101.71466 70 ft 43 kts 146°
2026-05-08 05:03 2.75691 101.71562 72 ft 27 kts 176°
2026-05-08 05:03 2.75618 101.71567 69 ft 8 kts 176°
2026-05-08 05:04 2.75568 101.71557 70 ft 8 kts 233°
2026-05-08 05:04 2.75565 101.71501 68 ft 9 kts 294°
2026-05-08 05:04 2.75607 101.71461 70 ft 8 kts 325°
2026-05-08 05:04 2.75652 101.71427 72 ft 8 kts 311°
2026-05-08 05:05 2.75654 101.71375 71 ft 8 kts 244°
2026-05-08 05:05 2.75623 101.71330 67 ft 8 kts 236°
2026-05-08 05:05 2.75594 101.71287 65 ft 7 kts 236°
2026-05-08 05:05 2.75565 101.71245 72 ft 7 kts 236°
2026-05-08 05:06 2.75538 101.71204 70 ft 7 kts 236°
2026-05-08 05:06 2.75511 101.71164 69 ft 7 kts 236°
2026-05-08 05:06 2.75485 101.71125 71 ft 7 kts 236°
2026-05-08 05:06 2.75460 101.71087 67 ft 7 kts 236°
2026-05-08 05:07 2.75435 101.71049 71 ft 6 kts 236°
2026-05-08 05:07 2.75410 101.71012 65 ft 6 kts 236°
2026-05-08 05:07 2.75386 101.70976 70 ft 6 kts 236°
2026-05-08 05:07 2.75362 101.70941 70 ft 6 kts 236°
2026-05-08 05:08 2.75339 101.70906 72 ft 6 kts 236°
2026-05-08 05:08 2.75317 101.70872 66 ft 6 kts 236°
2026-05-08 05:08 2.75294 101.70838 72 ft 6 kts 236°
2026-05-08 05:08 2.75272 101.70805 66 ft 6 kts 236°
2026-05-08 05:09 2.75284 101.70773 69 ft 6 kts 322°
2026-05-08 05:09 2.75308 101.70758 72 ft 2 kts 328°
2026-05-08 05:09 2.75321 101.70750 63 ft 2 kts 326°
2026-05-08 05:09 2.75330 101.70740 69 ft 1 kts 312°
2026-05-08 05:10 2.75333 101.70736 67 ft 0 kts 311°